(37628) = 1993 TK17 = 1999 VD16

Discovered at La Silla on 1993-10-09 by E. W. Elst.

Orbit

Orbit type: Main Belt

Note: WebGL enabled browser required.

epoch2023-09-13.0
epoch JD2460200.5
perihelion date2022-06-11.06415
perihelion JD2459741.56415
argument of perihelion (°)311.17087
ascending node (°)24.46884
inclination (°)22.30670
eccentricity0.0718346
perihelion distance (AU)3.0150307
Tisserand w.r.t. Jupiter3.1
ΔV w.r.t. Earth (km/sec)12.8
semimajor axis (AU)3.2483766
mean anomaly (°)77.26028
mean daily motion (°/day)0.16834660
aphelion distance (AU)3.482
period (years)5.85
P-vector [x]0.88763728
P-vector [y]-0.21774346
P-vector [z]-0.40581749
Q-vector [x]0.43287818
Q-vector [y]0.69526646
Q-vector [z]0.57377786
absolute magnitude13.88
phase slope0.15
uncertainty0
referenceMPEC 2024-B20
observations used1278
oppositions19
arc length (days)11056
first opposition used1993
last opposition used2024
residual rms (arc-secs)0.65
perturbers coarse indicatorM-v
perturbers precise indicator003Ek
first observation date used1993-10-09.0
last observation date used2024-01-16.0
computer nameMPCLINUX
JD of orbit computation2456937.334897
perihelion JD uncertainty (days)3.2893E-04
argument of perihelion uncertainty (°)5.0426E-05
ascending node uncertainty (°)1.0439E-05
inclination uncertainty (°)6.7481E-06
eccentricity uncertainty 6.5066E-08
perihelion distance uncertainty (AU)2.1764E-07
Minimum Orbit Intersection Distances (in AU)
for orbit epoch: 2460200.5, reference: E2024-B20
Mercury2.62077
Venus2.30606
Earth2.04803
Mars1.65372
Jupiter1.86981
Saturn6.04431
Uranus15.0575
Neptune26.7393

Observations

1305 total observations over interval: 1993 09 21.42023 – 2024 01 16.359040
These data are available for download (format description).

Date (UT) J2000 RA J2000 Dec Magn Location Ref
1993 09 21.42023 01 31 51.22 +03 17 23.1 18.5   675 – Palomar Mountain MPS 99
1993 09 21.45891 01 31 49.30 +03 17 25.3   675 – Palomar Mountain MPS 99
1993 10 09.14861 01 16 00.46 +03 31 29.0 18.3   809 – European Southern Observatory, La Silla MPC 22923
1993 10 09.16181 01 15 59.60 +03 31 29.6   809 – European Southern Observatory, La Silla MPC 22923
1993 10 09.17500 01 15 58.83 +03 31 29.2   809 – European Southern Observatory, La Silla MPC 22923
1993 10 11.11319 01 14 06.61 +03 33 07.8   809 – European Southern Observatory, La Silla MPC 22923
1993 10 11.12639 01 14 05.85 +03 33 08.3   809 – European Southern Observatory, La Silla MPC 22923
1993 10 11.13958 01 14 05.07 +03 33 08.9   809 – European Southern Observatory, La Silla MPC 22923
1993 10 20.15625 01 05 26.60 +03 42 14.5 18.3   809 – European Southern Observatory, La Silla MPC 23081
1993 10 20.16944 01 05 25.84 +03 42 15.7   809 – European Southern Observatory, La Silla MPC 23081
1993 10 20.18264 01 05 25.06 +03 42 16.3   809 – European Southern Observatory, La Silla MPC 23081
1999 10 02.36780 02 04 10.40 +13 09 20.6 18.6 R 703 – Catalina Sky Survey MPS 8341
1999 10 02.38016 02 04 09.75 +13 09 21.6 18.4 R 703 – Catalina Sky Survey MPS 8341
1999 10 02.39251 02 04 09.11 +13 09 23.4 18.4 R 703 – Catalina Sky Survey MPS 8341
1999 10 02.40484 02 04 08.56 +13 09 24.9 18.7 R 703 – Catalina Sky Survey MPS 8341
1999 10 09.29622 01 58 08.03 +13 22 59.7 18.1 R 703 – Catalina Sky Survey MPS 11772
1999 10 09.30817 01 58 07.30 +13 23 01.2 17.6 R 703 – Catalina Sky Survey MPS 11772
1999 10 09.32010 01 58 06.88 +13 23 01.9 17.3 R 703 – Catalina Sky Survey MPS 11772
1999 10 09.33204 01 58 06.04 +13 23 03.0 18.5 R 703 – Catalina Sky Survey MPS 11772
1999 10 13.34340 01 54 19.96 +13 29 33.5 17.8 V 691 – Steward Observatory, Kitt Peak-Spacewatch MPS 11772
1999 10 13.366620 01 54 18.564 +13 29 35.66 18.35 V 645 – Apache Point-Sloan Digital Sky Survey MPS 81120
1999 10 13.370092 01 54 18.363 +13 29 35.96 18.98   645 – Apache Point-Sloan Digital Sky Survey MPS 81120
1999 10 13.37208 01 54 18.27 +13 29 36.2 17.7 V 691 – Steward Observatory, Kitt Peak-Spacewatch MPS 11772
1999 10 13.40007 01 54 16.63 +13 29 38.6 17.7 V 691 – Steward Observatory, Kitt Peak-Spacewatch MPS 11772
1999 10 15.32938 01 52 24.95 +13 32 26.3 18.9   704 – Lincoln Laboratory ETS, New Mexico MPS 11772
1999 10 15.36037 01 52 23.14 +13 32 29.4 18.4   704 – Lincoln Laboratory ETS, New Mexico MPS 11772
1999 10 15.37584 01 52 22.20 +13 32 31.3 19.0   704 – Lincoln Laboratory ETS, New Mexico MPS 11772
1999 10 15.39127 01 52 21.34 +13 32 32.6 18.9   704 – Lincoln Laboratory ETS, New Mexico MPS 11772
1999 10 20.24573 01 47 35.22 +13 38 43.6 18.7   704 – Lincoln Laboratory ETS, New Mexico MPS 9791
1999 10 20.26152 01 47 34.24 +13 38 44.9 18.8   704 – Lincoln Laboratory ETS, New Mexico MPS 9791
1999 10 20.27722 01 47 33.31 +13 38 45.0 18.9   704 – Lincoln Laboratory ETS, New Mexico MPS 9791
1999 10 20.29291 01 47 32.32 +13 38 47.2 18.8   704 – Lincoln Laboratory ETS, New Mexico MPS 9791
1999 10 20.30860 01 47 31.38 +13 38 48.1 19.0   704 – Lincoln Laboratory ETS, New Mexico MPS 9791
1999 10 29.26444 01 38 42.62 +13 47 50.8 18.4 R 699 – Lowell Observatory-LONEOS MPS 11772
1999 10 29.29501 01 38 40.85 +13 47 52.7   699 – Lowell Observatory-LONEOS MPS 11772
1999 10 29.32558 01 38 39.01 +13 47 52.9   699 – Lowell Observatory-LONEOS MPS 11772
1999 11 02.20480 01 34 57.96 +13 51 11.6 18.5 V 691 – Steward Observatory, Kitt Peak-Spacewatch MPS 7452
1999 11 02.23934 01 34 55.97 +13 51 13.4 18.4 V 691 – Steward Observatory, Kitt Peak-Spacewatch MPS 7452
1999 11 02.26151 01 34 54.71 +13 51 14.4 18.5 V 691 – Steward Observatory, Kitt Peak-Spacewatch MPS 7452
1999 11 03.20375 01 34 02.35 +13 52 01.1 18.4 V 691 – Steward Observatory, Kitt Peak-Spacewatch MPS 7452
1999 11 03.22525 01 34 01.12 +13 52 02.2 18.5 V 691 – Steward Observatory, Kitt Peak-Spacewatch MPS 7452
1999 11 03.24852 01 33 59.81 +13 52 03.4 18.5 V 691 – Steward Observatory, Kitt Peak-Spacewatch MPS 7452
1999 11 03.38077 01 33 52.33 +13 52 09.7 18.3 R 703 – Catalina Sky Survey MPS 8341
1999 11 03.39741 01 33 51.43 +13 52 10.4 18.7 R 703 – Catalina Sky Survey MPS 8341
1999 11 03.41405 01 33 50.50 +13 52 12.4 18.9 R 703 – Catalina Sky Survey MPS 8341
1999 11 03.43071 01 33 49.46 +13 52 12.8 18.9 R 703 – Catalina Sky Survey MPS 8341
1999 11 04.24437 01 33 05.06 +13 52 52.7 18.7   704 – Lincoln Laboratory ETS, New Mexico MPS 7452
1999 11 04.26085 01 33 04.13 +13 52 53.8 18.6   704 – Lincoln Laboratory ETS, New Mexico MPS 7452
1999 11 04.27744 01 33 03.19 +13 52 54.6 18.8   704 – Lincoln Laboratory ETS, New Mexico MPS 7452
1999 11 04.27994 01 33 03.12 +13 52 54.0 18.5 R 703 – Catalina Sky Survey MPS 7452
1999 11 04.29430 01 33 02.27 +13 52 54.8 19.1   704 – Lincoln Laboratory ETS, New Mexico MPS 7452
1999 11 04.29663 01 33 02.16 +13 52 54.2 18.3 R 703 – Catalina Sky Survey MPS 7452
1999 11 04.31091 01 33 01.33 +13 52 57.0 19.0   704 – Lincoln Laboratory ETS, New Mexico MPS 7452
1999 11 04.31335 01 33 01.26 +13 52 56.6 18.8 R 703 – Catalina Sky Survey MPS 7452
1999 11 04.33008 01 33 00.29 +13 52 56.9 18.4 R 703 – Catalina Sky Survey MPS 7452
1999 11 10.21307 01 27 53.53 +13 57 51.7 18.7 V 691 – Steward Observatory, Kitt Peak-Spacewatch MPS 8341
1999 11 10.23929 01 27 52.22 +13 57 53.0 18.7 V 691 – Steward Observatory, Kitt Peak-Spacewatch MPS 8341
1999 11 10.26135 01 27 51.13 +13 57 53.5 18.2 V 691 – Steward Observatory, Kitt Peak-Spacewatch MPS 8341
1999 11 16.14527 01 23 18.65 +14 03 25.7 18.6   704 – Lincoln Laboratory ETS, New Mexico MPS 8341
1999 11 16.15991 01 23 17.94 +14 03 28.1 19.2   704 – Lincoln Laboratory ETS, New Mexico MPS 8341
1999 11 16.17489 01 23 17.34 +14 03 27.2 19.0   704 – Lincoln Laboratory ETS, New Mexico MPS 8341
1999 11 16.18945 01 23 16.66 +14 03 28.0 18.9   704 – Lincoln Laboratory ETS, New Mexico MPS 8341
1999 11 16.20397 01 23 16.07 +14 03 29.3 18.9   704 – Lincoln Laboratory ETS, New Mexico MPS 8341
2000 12 05.36193 07 52 18.16 +50 02 11.2 19.5   704 – Lincoln Laboratory ETS, New Mexico MPS 24756
2000 12 05.37709 07 52 17.77 +50 02 18.4 19.5   704 – Lincoln Laboratory ETS, New Mexico MPS 24756
2000 12 05.39225 07 52 17.17 +50 02 26.6 19.2   704 – Lincoln Laboratory ETS, New Mexico MPS 24756
2000 12 05.40742 07 52 16.64 +50 02 33.7 19.6   704 – Lincoln Laboratory ETS, New Mexico MPS 24756
2000 12 05.42272 07 52 16.08 +50 02 40.6 19.4   704 – Lincoln Laboratory ETS, New Mexico MPS 24756
2000 12 17.36634 07 43 31.04 +51 30 47.8 18.8   704 – Lincoln Laboratory ETS, New Mexico MPS 24756
2000 12 17.38147 07 43 30.19 +51 30 51.2 19.6   704 – Lincoln Laboratory ETS, New Mexico MPS 24756
2000 12 17.39661 07 43 29.36 +51 30 55.6 19.6   704 – Lincoln Laboratory ETS, New Mexico MPS 24756
2000 12 17.42689 07 43 27.69 +51 31 05.8 19.6   704 – Lincoln Laboratory ETS, New Mexico MPS 24756
2000 12 21.37047 07 39 38.32 +51 55 55.4 18.7   704 – Lincoln Laboratory ETS, New Mexico MPS 23465
2000 12 21.38571 07 39 37.23 +51 56 00.0 19.1   704 – Lincoln Laboratory ETS, New Mexico MPS 23465
2000 12 21.40097 07 39 36.39 +51 56 06.8 19.2   704 – Lincoln Laboratory ETS, New Mexico MPS 23465
2000 12 21.41623 07 39 35.40 +51 56 10.3 19.5   704 – Lincoln Laboratory ETS, New Mexico MPS 23465
2000 12 21.43148 07 39 34.55 +51 56 17.0 19.0   704 – Lincoln Laboratory ETS, New Mexico MPS 23465
2001 01 17.27426 07 07 27.31 +53 10 53.9 18.5   704 – Lincoln Laboratory ETS, New Mexico MPS 24756
2001 01 17.29037 07 07 26.27 +53 10 52.5 18.4   704 – Lincoln Laboratory ETS, New Mexico MPS 24756
2001 01 17.30721 07 07 24.94 +53 10 52.1 18.0   704 – Lincoln Laboratory ETS, New Mexico MPS 24756
2002 02 21.48129 12 18 02.15 +17 34 29.1 19.0   644 – Palomar Mountain/NEAT MPS 48375
2002 02 21.49161 12 18 01.73 +17 34 30.3 19.0   644 – Palomar Mountain/NEAT MPS 48375
2002 02 21.50212 12 18 01.31 +17 34 32.4 18.6   644 – Palomar Mountain/NEAT MPS 48375
2002 03 09.37629 12 05 40.88 +18 17 05.4 18.4 R 699 – Lowell Observatory-LONEOS MPS 51276
2002 03 09.39591 12 05 39.84 +18 17 07.1   699 – Lowell Observatory-LONEOS MPS 51276
2002 03 09.41555 12 05 38.80 +18 17 10.1   699 – Lowell Observatory-LONEOS MPS 51276
